User: anonymous   Login
Location: Unspecified
(0.0000°N, 0.0000°E)
Time: 06:18:45
(UTC+00:00)
Language:

Hamsat - Orbit

View from above orbital plane
View from above orbital plane
View from above satellite
View from above satellite

Ground track
Ground track

The orbit data is extracted from the following two-line orbital elements,

1 28650U 05017B   17119.89367176 +.00000401 +00000-0 +48649-4 0  9990
2 28650 097.6471 095.8810 0022100 292.1470 067.7402 14.88636945648916
Epoch (UTC): 29 April 2017 21:26:53
Eccentricity: 0.0022100
inclination: 97.6471°
perigee height: 587 km
apogee height: 617 km
right ascension of ascending node: 95.8810°
argument of perigee: 292.1470°
revolutions per day: 14.88636945
mean anomaly at epoch: 67.7402°
orbit number at epoch: 64891

The dashed part of the orbit path shows where the satellite is in the earth's shadow,  

DLR